Location: Possagno
(45.8500°N, 11.8667°E)
Time: 00:51:44
(UTC+00:00)

Resurs 1-4 Rocket - Pass Details

Date: 06 October 2020
Orbit: 800 x 813 km, 98.6° (Epoch: 27 October)

Event Time Altitude Azimuth Distance (km) Brightness Sun altitude
Rises 01:51:20 0° 6° (N) 3,335 5.8 -35.1°
Reaches altitude 10° 01:53:52 10° 357° (N) 2,401 4.8 -34.8°
Enters shadow 01:54:57 15° 350° (N) 2,040 4.4 -34.6°
